Back to catalog

STARLINK-36599

AliveCommunicationsVLEO
NORAD 67638·PAYLOAD·🇺🇸 United States

Launched Jan 30, 2026 from Cape Canaveral Space Force Station

Loading…

Next Passes (next 24 hours)

TLE

FreshSource: CelesTrak SupGP

Epoch: Sep 14, 2026, 21:35 UTC

1 67638C 26020X   26257.89979167 -.00032149  00000+0 -11646-2 0  2575
2 67638  43.0009 151.6244 0001290 265.1166 185.1235 15.27591537    11

Track STARLINK-36599 in real time with AllMySat

Download on the App Store